Regional Weather Roundup
Issued by NWS

Home | Current Version | Previous Version | Graphics & Text | Print | Product List | Glossary On
Versions: 1 2 3 4 5 6 7 8 9 10 11 12 13 14 15 16 17 18 19 20 21 22 23 24 25 26 27 28 29 30 31 32 33 34 35 36 37 38 39 40 41 42 43 44 45 46 47 48 49 50
000
ASUS44 KMEG 021400
RWRTN
TENNESSEE HOURLY STATE WEATHER ROUNDUP
NATIONAL WEATHER SERVICE MEMPHIS TN
900 AM CDT SUN AUG 02 2015

TNZ002-004-019-021-049-052-054-088>092-021500-
WEST TENNESSEE

CITY           SKY/WX    TMP DP  RH WIND       PRES   REMARKS
MEMPHIS INTL   MOSUNNY   84  69  60 S5        29.99R
NWS MEMPHIS      N/A     83 N/A N/A MISG        N/A
JACKSON        SUNNY     82  68  62 CALM      30.00R
DYERSBURG        N/A    N/A N/A N/A MISG        N/A
PARIS          SUNNY     77  64  65 SE5       30.01S
LEXINGTON      SUNNY     79  68  69 CALM      30.00R
$$

TNZ008-025-027-028-033-062-065-066-021500-
NORTH MIDDLE TENNESSEE

CITY           SKY/WX    TMP DP  RH WIND       PRES   REMARKS
NASHVILLE      MOSUNNY   77  65  66 CALM      30.02R
CLARKSVILLE    SUNNY     74  65  73 SE3       30.01R
CROSSVILLE     SUNNY     74  61  63 NE5       30.07R
$$

TNZ061-075-076-078-094-096-097-021500-
SOUTH MIDDLE TENNESSEE

CITY           SKY/WX    TMP DP  RH WIND       PRES   REMARKS
FAYETTEVILLE   SUNNY     75  64  69 E5        30.01S
TULLAHOMA      SUNNY     77  61  57 CALM      30.03R
WINCHESTER     SUNNY     75  64  69 CALM      30.02R
MCMINNVILLE    SUNNY     73  70  88 NE5       30.03R
COLUMBIA       SUNNY     75  73  94 CALM      30.00R
SHELBYVILLE    SUNNY     77  66  69 CALM      30.02S
$$

TNZ017-018-042-046-047-021500-
NORTHEAST TENNESSEE

CITY           SKY/WX    TMP DP  RH WIND       PRES   REMARKS
TRI CITIES     MOSUNNY   72  63  73 CALM      30.06S
ELIZABETHTON   SUNNY     70  61  73 CALM      30.06S
$$

TNZ012-013-036-069-073-074-021500-
CENTRAL EAST TENNESSEE

CITY           SKY/WX    TMP DP  RH WIND       PRES   REMARKS
KNOXVILLE      MOSUNNY   75  64  68 NE5       30.01R
OAK RIDGE      SUNNY     77  63  61 NE6       30.03S
GATLINBURG     SUNNY     73  64  73 CALM      30.01S
$$

TNZ083-085-099-021500-
SOUTHEAST TENNESSEE

CITY           SKY/WX    TMP DP  RH WIND       PRES   REMARKS
CHATTANOOGA    MOSUNNY   79  64  60 N8        30.00R
$$

SKY/WX REPORTED AS FAIR MEANS FEW OR NO CLOUDS BELOW
12 THOUSAND FEET.




USA.gov is the U.S. government's official web portal to all federal, state and local government web resources and services.